Weather Roundup
Issued by NWS

Home | Current Version | Previous Version | Graphics & Text | Print | Product List | Glossary Off
Versions: 1 2 3 4 5 6 7 8 9 10 11 12 13 14 15 16 17 18 19 20 21 22 23 24 25 26 27 28 29 30 31 32 33 34 35 36 37 38 39 40 41 42 43 44 45 46 47 48 49 50

000
NZUS93 KARX 220259
HRRWXR

CURRENT HOURLY OBSERVATIONS ACROSS
MUCH OF THE UPPER MISSISSIPPI VALLEY
NATIONAL WEATHER SERVICE LA CROSSE WI
1000 PM CDT SUN SEP 21 2014


...SOUTHEAST MINNESOTA...


CITY           SKY/WX    TMP DP  RH WIND       PRES   REMARKS
ROCHESTER      CLEAR     50  46  86 NW7       30.22R
ROCHESTER/MAYO FAIR      55  45  67 W5        30.22R
WINONA         CLEAR     54  50  87 CALM      30.20S
AUSTIN         CLEAR     52  48  87 NW3       30.22R
ALBERT LEA     CLEAR     52  50  93 CALM      30.23R
DODGE CENTER   CLEAR     54  48  82 CALM      30.22R
PRESTON        CLEAR     50  48  93 NW3       30.22R
OWATONNA       CLEAR     48  46  93 CALM      30.22S
FARIBAULT      CLEAR     52  46  82 W5        30.23R
$$

...ELSEWHERE IN MINNESOTA...


CITY           SKY/WX    TMP DP  RH WIND       PRES   REMARKS
MINNEAPOLIS    CLEAR     55  48  77 W5        30.21R
INTNL FALLS    MOCLDY    50  47  89 W3        30.16S
DULUTH         CLEAR     49  43  80 W3        30.18S
RED WING       CLEAR     50  46  87 N3        30.20R
REDWOOD FALLS  CLEAR     54  49  83 NW5       30.25R
MANKATO        CLEAR     55  45  67 NW7       30.24R
WORTHINGTON    CLEAR     50  45  81 NW3       30.27R
FAIRMONT       CLEAR     52  45  76 NW5       30.25R
$$

...SOUTHWEST WISCONSIN...


CITY           SKY/WX    TMP DP  RH WIND       PRES   REMARKS
LA CROSSE      CLEAR     54  46  74 N5        30.19R
PRAIRIE DU CHI CLEAR     51  48  90 CALM      30.18R
BOSCOBEL       CLEAR     49  46  90 CALM      30.19R FOG
LONE ROCK      NOT AVBL
PLATTEVILLE    CLEAR     51  47  87 NW5       30.17R
FORT MC COY    NOT AVBL
CAMP DOUGLAS   CLEAR     44  44 100 CALM      30.19R
VIROQUA        FAIR      50  45  84 N5        30.19R
WIS DELLS      CLEAR     52  42  71 N3        30.17R
$$

...ELSEWHERE IN WISCONSIN...


CITY           SKY/WX    TMP DP  RH WIND       PRES   REMARKS
MILWAUKEE      CLEAR     52  41  66 N9        30.14R
MADISON        CLEAR     50  44  80 N5        30.16R
GREEN BAY      CLEAR     45  40  82 NW5       30.16R
EAU CLAIRE     NOT AVBL
BLACK RVR FLS  FAIR      42  42 100 CALM      30.19R
MEDFORD        CLEAR     39  38  98 CALM      30.18R
WAUSAU         CLEAR     45  40  82 NW3       30.17R
WIS RAPIDS     CLEAR     46  40  79 N3        30.20R
MARSHFIELD     CLEAR     47  39  74 CALM      30.18R
RICE LAKE      CLEAR     48  46  93 CALM      30.21R
$$

...NORTHEAST IOWA...


CITY           SKY/WX    TMP DP  RH WIND       PRES   REMARKS
WATERLOO       CLEAR     48  45  89 NW6       30.21R
DUBUQUE        CLEAR     50  46  86 NW7       30.18R
DECORAH        CLEAR     52  46  82 NW5       30.20R
MASON CITY     CLEAR     50  47  89 NW7       30.25R
CHARLES CITY   CLEAR     50  48  93 NW7       30.23R
OELWEIN        CLEAR     50  46  87 NW3       30.21R
$$

...ELSEWHERE IN IOWA...


CITY           SKY/WX    TMP DP  RH WIND       PRES   REMARKS
DES MOINES     CLEAR     60  49  66 N6        30.23R
IOWA CITY        N/A     53  48  83 NW6       30.20R
FORT DODGE     CLEAR     52  45  76 N3        30.25S
MARSHALLTOWN   CLEAR     50  48  93 NW6       30.21R
CEDAR RAPIDS   CLEAR     51  48  89 NW5       30.18R
$$

...NORTHERN ILLINOIS...


CITY           SKY/WX    TMP DP  RH WIND       PRES   REMARKS
CHICAGO-OHARE  PTCLDY    57  47  69 N3        30.13R
DUPAGE         CLEAR     49  44  83 N6        30.13R
CHICAGO-MIDWAY CLEAR     57  46  66 N7        30.13R
MOLINE         CLEAR     58  47  66 N5        30.16R
ROCKFORD       CLEAR     53  46  77 CALM      30.17R
STERLING       CLEAR     54  46  76 N5        30.15R
PEORIA         CLEAR     57  51  80 NW3       30.15R
$$

NOTE: "FAIR" INDICATES FEW OR NO CLOUDS BELOW 12,000 FEET WITH NO
SIGNIFICANT WEATHER AND/OR OBSTRUCTIONS TO VISIBILITY. WIND
SPEEDS ARE IN MILES-PER-HOUR.



USA.gov is the U.S. government's official web portal to all federal, state and local government web resources and services.